Location: Erba
(45.8000°N, 9.2500°E)
Time: 21:43:18
(UTC+02:00)

ISS - Visible Passes

Search period start: 16 May 2021 00:00
Search period end: 26 May 2021 00:00
Orbit: 417 x 422 km, 51.6° (Epoch: 16 May)

Date Brightness Start Highest point End Pass type
(mag) Time Alt. Az. Time Alt. Az. Time Alt. Az.
16 May -1.7 01:17:14 10° WNW 01:20:14 29° N 01:23:14 10° ENE visible
16 May -2.9 02:54:12 10° WNW 02:57:31 51° NNE 03:00:50 10° E visible
16 May -3.0 04:31:11 10° WNW 04:34:14 31° SW 04:37:16 10° SSE visible
16 May -3.3 22:52:04 10° WSW 22:55:24 62° NNW 22:58:45 10° ENE visible
17 May -1.7 00:29:37 10° WNW 00:32:38 29° N 00:35:39 10° ENE visible
17 May -2.4 02:06:46 10° NW 02:09:59 40° NNE 02:13:12 10° E visible
17 May -3.7 03:43:35 10° WNW 03:46:53 50° SW 03:50:09 10° SE visible
17 May -3.8 22:04:34 10° WSW 22:07:55 89° NW 22:11:18 10° ENE visible
17 May -1.9 23:41:57 10° WNW 23:45:02 32° N 23:48:07 10° ENE visible
18 May -2.0 01:19:18 10° NW 01:22:25 33° N 01:22:53 32° NNE visible
18 May -2.2 22:54:17 10° W 22:57:27 37° NNW 23:00:37 10° NE visible
19 May -1.8 00:31:46 10° WNW 00:34:49 30° N 00:36:28 20° NE visible
19 May -1.3 02:08:37 10° WNW 02:09:22 16° WNW 02:09:22 16° WNW visible
19 May -2.6 22:06:38 10° W 22:09:53 46° NNW 22:13:10 10° NE visible
19 May -1.7 23:44:12 10° WNW 23:47:12 29° N 23:50:12 10° ENE visible
20 May -2.0 01:21:11 10° WNW 01:23:11 31° NW 01:23:11 31° NW visible
20 May -1.7 22:56:35 10° WNW 22:59:35 29° N 23:02:36 10° ENE visible
21 May -2.5 00:33:43 10° NW 00:36:56 40° NNE 00:37:06 39° NNE visible
21 May -1.9 22:08:54 10° WNW 22:11:58 32° N 22:15:03 10° ENE visible
21 May -2.1 23:46:15 10° NW 23:49:21 33° N 23:51:03 20° ENE visible
22 May -1.4 01:23:01 10° WNW 01:23:59 18° WNW 01:23:59 18° WNW visible
22 May -1.9 22:58:43 10° WNW 23:01:45 30° N 23:04:46 10° ENE visible
23 May -2.7 00:35:33 10° WNW 00:37:58 43° NW 00:37:58 43° NW visible
23 May -1.8 22:11:07 10° WNW 22:14:07 29° N 22:17:07 10° ENE visible
23 May -3.1 23:48:05 10° WNW 23:51:24 51° NNE 23:51:59 45° ENE visible
24 May -2.6 23:00:37 10° NW 23:03:50 40° NNE 23:06:01 18° E visible
25 May -1.8 00:37:27 10° WNW 00:38:56 23° W 00:38:56 23° W visible
25 May -2.2 22:13:07 10° NW 22:16:14 33° N 22:19:21 10° ENE visible
25 May -3.7 23:49:54 10° WNW 23:53:00 70° W 23:53:00 70° W visible
